Location: Meanaryar
(48.4161°N, 4.7315°W)
Time: 17:17:46
(UTC+00:00)

Cosmos 1680 Rocket - Pass Details

Date: 18 September 2020
Orbit: 760 x 781 km, 74.1° (Epoch: 30 October)

Event Time Altitude Azimuth Distance (km) Brightness Sun altitude
Rises 18:51:51 0° 335° (NNW) 3,234 7.3 -5.4°
Reaches altitude 10° 18:54:14 10° 333° (NNW) 2,306 6.5 -5.8°
Maximum altitude 18:59:25 69° 251° (WSW) 821 3.9 -6.6°
Drops below altitude 10° 19:04:37 10° 169° (S) 2,301 5.8 -7.4°
Sets 19:06:59 0° 167° (SSE) 3,227 6.5 -7.8°
